Weather History for EHWO - February, 2014

Change the Weather History Date:

Thursday, February 6, 2014

  Actual Average Record
Temperature  
Mean Temperature 45 °F -  
Max Temperature 49 °F 44 °F 55 °F (2001)
Min Temperature 41 °F 34 °F 8 °F (2012)
Degree Days  
Heating Degree Days 20    
Moisture  
Dew Point 40 °F    
Average Humidity 80    
Maximum Humidity 100    
Minimum Humidity 59    
Precipitation  
Precipitation 0.00 in - - ()
Sea Level Pressure  
Sea Level Pressure 29.44 in    
Wind  
Wind Speed 13 mph ()    
Max Wind Speed 18 mph    
Max Gust Speed 32 mph    
Visibility 6.7 miles    
Events Rain    
Averages and records for this station are not official NWS values.
T = Trace of Precipitation, MM = Missing Value Source: Averaged Metar Reports

Daily Weather History Graph

Daily Weather History Graph

Search for Another Location

Airport or City:

Trip Planner

Search our weather history database for the weather conditions in past years. The results will help you decide how hot, cold, wet, or windy it might be!

Date:

Astronomy

Feb. 06, 2014 Rise Set
Actual Time 8:12 AM CET 5:41 PM CET
Civil Twilight 7:37 AM CET 6:16 PM CET
Nautical Twilight 6:57 AM CET 6:56 PM CET
Astronomical Twilight 6:19 AM CET 7:35 PM CET
Moon 11:02 AM CET 1:10 AM CET
Length of Visible Light 10h 39m
Length of Day
9h 28m
Waxing Crescent, 46% of the Moon is Illuminated
Feb 6
Waxing Crescent
Feb 6
First Quarter
Feb 15
Full
Feb 22
Last Quarter
Mar 1
New

Hourly Weather History & Observations

Time (CET) Temp. Windchill Dew Point Humidity Pressure Visibility Wind Dir Wind Speed Gust Speed Precip Events Conditions
12:00 AM 48 °F - 40 °F 64% 29.40 in 12 mi SSW 15.7 mph - -   Partly Cloudy
12:25 AM 48.2 °F - 39.2 °F 71% 29.39 in 6.2 mi SSW 13.8 mph 26.5 mph N/A   Mostly Cloudy
12:55 AM 48.2 °F - 39.2 °F 71% 29.42 in 6.2 mi SSW 13.8 mph 26.5 mph N/A   Mostly Cloudy
1:00 AM 48 °F - 40 °F 64% 29.42 in 12 mi SSW 15.7 mph - -   Partly Cloudy
1:25 AM 46.4 °F 40.1 °F 39.2 °F 76% 29.42 in 6.2 mi SW 15.0 mph - N/A   Overcast
1:55 AM 48.2 °F - 39.2 °F 71% 29.44 in 6.2 mi SSW 17.3 mph - N/A   Mostly Cloudy
2:00 AM 47 °F - 39 °F 66% 29.45 in 11 mi SSW 17.9 mph - -   Scattered Clouds
2:25 AM 46.4 °F 39.8 °F 39.2 °F 76% 29.44 in 6.2 mi SSW 16.1 mph 31.1 mph N/A   Mostly Cloudy
2:55 AM 46.4 °F 40.1 °F 39.2 °F 76% 29.44 in 6.2 mi SW 15.0 mph 27.6 mph N/A   Overcast
3:00 AM 46 °F - 38 °F 67% 29.48 in 11 mi SW 13.4 mph - - Rain Rain
3:25 AM 46.4 °F 40.4 °F 37.4 °F 71% 29.47 in 6.2 mi SW 13.8 mph - N/A   Mostly Cloudy
3:55 AM 46.4 °F 39.8 °F 37.4 °F 71% 29.47 in 6.2 mi SW 16.1 mph 27.6 mph N/A   Overcast
4:00 AM 46 °F - 38 °F 65% 29.50 in 11 mi SSW 15.7 mph - -   Partly Cloudy
4:25 AM 46.4 °F 39.8 °F 37.4 °F 71% 29.47 in 6.2 mi SSW 16.1 mph 27.6 mph N/A   Mostly Cloudy
4:55 AM 46.4 °F 39.8 °F 37.4 °F 71% 29.50 in 6.2 mi SSW 16.1 mph 31.1 mph N/A   Mostly Cloudy
5:00 AM 45 °F - 38 °F 68% 29.51 in 11 mi SW 15.7 mph - -   Partly Cloudy
5:25 AM 44.6 °F 37.8 °F 37.4 °F 76% 29.50 in 6.2 mi SW 15.0 mph - N/A   Mostly Cloudy
5:55 AM 44.6 °F 37.8 °F 37.4 °F 76% 29.50 in 6.2 mi SSW 15.0 mph 27.6 mph N/A   Mostly Cloudy
6:00 AM 45 °F - 38 °F 67% 29.52 in 10 mi SSW 15.7 mph - -   Partly Cloudy
6:12 AM 44.6 °F 37.4 °F 37.4 °F 76% 29.50 in 6.2 mi SW 16.1 mph - N/A   Mostly Cloudy
6:18 AM 44.6 °F 37.8 °F 37.4 °F 76% 29.50 in 6.2 mi SW 15.0 mph - N/A   Mostly Cloudy
6:25 AM 44.6 °F 37.4 °F 37.4 °F 76% 29.50 in 6.2 mi SSW 16.1 mph 29.9 mph N/A   Mostly Cloudy
6:26 AM 44.6 °F 37.4 °F 37.4 °F 76% 29.50 in 6.2 mi SSW 16.1 mph 29.9 mph N/A   Mostly Cloudy
6:55 AM 44.6 °F 38.4 °F 37.4 °F 76% 29.50 in 6.2 mi SSW 12.7 mph - N/A   Mostly Cloudy
7:00 AM 44 °F - 38 °F 71% 29.53 in 9 mi SSW 13.4 mph - -   Partly Cloudy
7:20 AM 44.6 °F 38.1 °F 37.4 °F 76% 29.50 in 6.2 mi SSW 13.8 mph 26.5 mph N/A   Mostly Cloudy
7:25 AM 44.6 °F 38.1 °F 37.4 °F 76% 29.50 in 6.2 mi SSW 13.8 mph - N/A   Scattered Clouds
7:26 AM 44.6 °F 38.1 °F 37.4 °F 76% 29.50 in 6.2 mi SSW 13.8 mph - N/A   Mostly Cloudy
7:55 AM 44.6 °F 37.8 °F 37.4 °F 76% 29.53 in 6.2 mi SSW 15.0 mph 26.5 mph N/A   Mostly Cloudy
8:00 AM 44 °F - 37 °F 70% 29.54 in 9 mi SSW 13.4 mph - -   Scattered Clouds
8:25 AM 44.6 °F 38.1 °F 37.4 °F 76% 29.53 in 6.2 mi SSW 13.8 mph - N/A   Mostly Cloudy
8:55 AM 44.6 °F 38.4 °F 37.4 °F 76% 29.53 in 6.2 mi SSW 12.7 mph - N/A   Mostly Cloudy
9:00 AM 44 °F - 38 °F 71% 29.57 in 9 mi SSW 11.2 mph - -   Mostly Cloudy
9:25 AM 44.6 °F 38.4 °F 37.4 °F 76% 29.56 in 6.2 mi SSW 12.7 mph - N/A   Mostly Cloudy
9:55 AM 44.6 °F 38.4 °F 37.4 °F 76% 29.56 in 6.2 mi SSW 12.7 mph - N/A   Overcast
10:00 AM 45 °F - 38 °F 69% 29.57 in 9 mi SSW 15.7 mph - -   Overcast
10:00 AM 44.6 °F 37.8 °F 37.4 °F 76% 29.56 in 6.2 mi SSW 15.0 mph 28.8 mph N/A   Mostly Cloudy
10:10 AM 44.6 °F 38.1 °F 39.2 °F 81% 29.56 in 6.2 mi SSW 13.8 mph - N/A   Mostly Cloudy
10:18 AM 44.6 °F 37.8 °F 39.2 °F 81% 29.56 in 6.2 mi SSW 15.0 mph 26.5 mph N/A   Mostly Cloudy
10:25 AM 44.6 °F 37.8 °F 39.2 °F 81% 29.56 in 6.2 mi SSW 15.0 mph 26.5 mph N/A   Mostly Cloudy
10:26 AM 46.4 °F 40.1 °F 39.2 °F 76% 29.56 in 6.2 mi SSW 15.0 mph - N/A   Mostly Cloudy
10:33 AM 46.4 °F 39.8 °F 39.2 °F 76% 29.56 in 6.2 mi SSW 16.1 mph - N/A   Mostly Cloudy
10:34 AM 44.6 °F 37.4 °F 39.2 °F 81% 29.56 in 6.2 mi SSW 16.1 mph 29.9 mph N/A   Mostly Cloudy
10:41 AM 46.4 °F 40.1 °F 39.2 °F 76% 29.56 in 6.2 mi SSW 15.0 mph 29.9 mph N/A   Mostly Cloudy
10:55 AM 46.4 °F 40.7 °F 39.2 °F 76% 29.56 in 6.2 mi SSW 12.7 mph - N/A   Mostly Cloudy
11:00 AM 46 °F - 39 °F 69% 29.59 in 9 mi SSW 13.4 mph - -   Partly Cloudy
11:12 AM 46.4 °F 41.1 °F 39.2 °F 76% 29.56 in 6.2 mi SSW 11.5 mph - N/A   Mostly Cloudy
11:25 AM 46.4 °F 41.1 °F 39.2 °F 76% 29.56 in 6.2 mi SSW 11.5 mph - N/A   Mostly Cloudy
11:29 AM 46.4 °F 41.1 °F 39.2 °F 76% 29.56 in 6.2 mi SSW 11.5 mph - N/A   Scattered Clouds
11:55 AM 48.2 °F - 39.2 °F 71% 29.59 in 6.2 mi SSW 11.5 mph - N/A   Overcast
12:00 PM 48 °F - 40 °F 64% 29.60 in 8 mi SSW 11.2 mph - -   Scattered Clouds
12:01 PM 48.2 °F - 39.2 °F 71% 29.59 in 6.2 mi SSW 10.4 mph - N/A   Mostly Cloudy
12:02 PM 48.2 °F - 39.2 °F 71% 29.59 in 6.2 mi SSW 10.4 mph - N/A   Mostly Cloudy
12:25 PM 48.2 °F - 41.0 °F 76% 29.56 in 6.2 mi SSW 10.4 mph - N/A   Mostly Cloudy
12:34 PM 48.2 °F - 39.2 °F 71% 29.56 in 6.2 mi SSW 12.7 mph - N/A   Mostly Cloudy
12:44 PM 48.2 °F - 41.0 °F 76% 29.56 in 6.2 mi SSW 15.0 mph 26.5 mph N/A   Scattered Clouds
12:48 PM 48.2 °F - 41.0 °F 76% 29.56 in 6.2 mi SSW 12.7 mph 26.5 mph N/A   Scattered Clouds
12:55 PM 48.2 °F - 41.0 °F 76% 29.56 in 6.2 mi SSW 12.7 mph - N/A   Mostly Cloudy
1:00 PM 49 °F - 40 °F 64% 29.57 in 9 mi SSW 11.2 mph - -   Partly Cloudy
1:25 PM 48.2 °F - 41.0 °F 76% 29.53 in 6.2 mi SSW 13.8 mph - N/A   Overcast
1:55 PM 48.2 °F - 41.0 °F 76% 29.53 in 6.2 mi SW 11.5 mph - N/A   Mostly Cloudy
1:56 PM 48.2 °F - 41.0 °F 76% 29.53 in 6.2 mi SW 11.5 mph - N/A   Mostly Cloudy
2:00 PM 49 °F - 41 °F 66% 29.54 in 9 mi SW 11.2 mph - -   Mostly Cloudy
2:04 PM 50.0 °F - 41.0 °F 71% 29.53 in 6.2 mi SW 11.5 mph - N/A   Mostly Cloudy
2:15 PM 50.0 °F - 41.0 °F 71% 29.53 in 6.2 mi SW 10.4 mph - N/A   Scattered Clouds
2:25 PM 50.0 °F - 39.2 °F 66% 29.50 in 6.2 mi SSW 10.4 mph - N/A   Mostly Cloudy
2:30 PM 50.0 °F - 39.2 °F 66% 29.50 in 6.2 mi SSW 11.5 mph - N/A   Mostly Cloudy
2:55 PM 48.2 °F - 39.2 °F 71% 29.50 in 6.2 mi South 10.4 mph - N/A   Mostly Cloudy
2:59 PM 48.2 °F - 39.2 °F 71% 29.47 in 6.2 mi South 10.4 mph 21.9 mph N/A   Mostly Cloudy
3:00 PM 49 °F - 39 °F 59% 29.50 in 9 mi South 8.9 mph - -   Partly Cloudy
3:25 PM 48.2 °F - 39.2 °F 71% 29.47 in 6.2 mi South 10.4 mph - N/A   Drizzle
3:47 PM 48.2 °F - 39.2 °F 71% 29.47 in 6.2 mi South 12.7 mph - N/A Rain Drizzle
3:55 PM 46.4 °F 40.7 °F 39.2 °F 76% 29.47 in 6.2 mi South 12.7 mph 25.3 mph N/A   Drizzle
3:56 PM 46.4 °F 40.7 °F 39.2 °F 76% 29.47 in 6.2 mi South 12.7 mph 25.3 mph N/A Rain Drizzle
4:00 PM 46 °F - 40 °F 72% 29.47 in 7 mi South 13.4 mph - - Rain Heavy Rain
4:08 PM 46.4 °F 41.1 °F 41.0 °F 81% 29.44 in 6.2 mi South 11.5 mph - N/A Rain Light Rain
4:16 PM 44.6 °F 38.8 °F 41.0 °F 87% 29.44 in 5.6 mi South 11.5 mph - N/A Rain Light Rain
4:17 PM 46.4 °F 41.1 °F 41.0 °F 81% 29.44 in 5.6 mi South 11.5 mph 23.0 mph N/A Rain Light Rain Showers
4:25 PM 44.6 °F 38.8 °F 41.0 °F 87% 29.44 in 6.2 mi SSE 11.5 mph 23.0 mph N/A   Heavy Drizzle
4:38 PM 44.6 °F 40.7 °F 41.0 °F 87% 29.44 in 6.2 mi SSE 6.9 mph - N/A Rain Light Rain
4:39 PM 44.6 °F 40.7 °F 41.0 °F 87% 29.44 in 6.2 mi SE 6.9 mph - N/A Rain Light Rain
4:43 PM 44.6 °F 40.2 °F 41.0 °F 87% 29.42 in 6.2 mi SSE 8.1 mph - N/A Rain Light Rain
4:55 PM 44.6 °F 39.2 °F 41.0 °F 87% 29.42 in 6.2 mi SSE 10.4 mph 21.9 mph N/A Rain Light Rain
4:58 PM 44.6 °F 38.8 °F 41.0 °F 87% 29.42 in 6.2 mi South 11.5 mph - N/A Rain Light Rain Showers
5:00 PM 44 °F - 41 °F 84% 29.44 in 7 mi South 11.2 mph - - Rain Light Rain
5:01 PM 44.6 °F 38.8 °F 41.0 °F 87% 29.42 in 6.2 mi South 11.5 mph - N/A Rain Light Rain Showers
5:05 PM 44.6 °F 39.2 °F 41.0 °F 87% 29.42 in 6.2 mi South 10.4 mph - N/A Rain Light Rain Showers
5:14 PM 42.8 °F 35.8 °F 39.2 °F 87% 29.42 in 5.6 mi South 13.8 mph 32.2 mph N/A Rain Light Rain
5:18 PM 42.8 °F 35.4 °F 39.2 °F 87% 29.42 in 5.6 mi South 15.0 mph 32.2 mph N/A Rain Light Rain
5:25 PM 42.8 °F 35.4 °F 39.2 °F 87% 29.42 in 6.2 mi South 15.0 mph 32.2 mph N/A Rain Light Rain
5:26 PM 42.8 °F 35.8 °F 39.2 °F 87% 29.42 in 6.2 mi South 13.8 mph 26.5 mph N/A Rain Light Rain
5:31 PM 42.8 °F 36.6 °F 39.2 °F 87% 29.42 in 6.2 mi SSE 11.5 mph - N/A Rain Light Rain
5:35 PM 42.8 °F 36.6 °F 39.2 °F 87% 29.42 in 6.2 mi SSE 11.5 mph - N/A Rain Light Rain Showers
5:44 PM 41.0 °F 34.7 °F 39.2 °F 93% 29.39 in 5.6 mi SSE 10.4 mph - N/A Rain Rain
5:55 PM 41.0 °F 34.7 °F 39.2 °F 93% 29.39 in 6.2 mi SE 10.4 mph - N/A Rain Rain Showers
6:00 PM 41 °F - 39 °F 90% 29.38 in 9 mi ESE 8.9 mph - - Rain Rain
6:02 PM 41.0 °F 35.2 °F 39.2 °F 93% 29.36 in 6.2 mi ESE 9.2 mph 20.7 mph N/A Rain Light Rain Showers
6:25 PM 41.0 °F 34.7 °F 39.2 °F 93% 29.36 in 6.2 mi SE 10.4 mph 23.0 mph N/A Rain Rain Showers
6:33 PM 41.0 °F 34.3 °F 39.2 °F 93% 29.36 in 6.2 mi SE 11.5 mph - N/A Rain Light Rain
6:34 PM 41.0 °F 34.3 °F 39.2 °F 93% 29.36 in 6.2 mi SE 11.5 mph - N/A Rain Light Rain
6:38 PM 41.0 °F 34.3 °F 39.2 °F 93% 29.36 in 6.2 mi SE 11.5 mph - N/A Rain Light Rain Showers
6:42 PM 41.0 °F 34.3 °F 39.2 °F 93% 29.33 in 6.2 mi SE 11.5 mph - N/A Rain Light Rain Showers
6:55 PM 41.0 °F 34.7 °F 41.0 °F 100% 29.33 in 6.2 mi SE 10.4 mph - N/A Rain Rain
6:56 PM 41.0 °F 34.7 °F 41.0 °F 100% 29.33 in 5.6 mi SE 10.4 mph - N/A Rain Rain
7:00 PM 42 °F - 40 °F 91% 29.34 in 5 mi SE 8.9 mph - - Rain Rain
7:08 PM 41.0 °F 34.3 °F 41.0 °F 100% 29.33 in 5.6 mi SE 11.5 mph - N/A Rain Light Rain Showers
7:12 PM 41.0 °F 34.3 °F 41.0 °F 100% 29.33 in 6.2 mi SE 11.5 mph - N/A Rain Light Rain
7:16 PM 42.8 °F 37.0 °F 41.0 °F 93% 29.33 in 4.3 mi SE 10.4 mph - N/A Rain Light Rain Showers
7:18 PM 42.8 °F 36.6 °F 41.0 °F 93% 29.33 in 4.3 mi SE 11.5 mph - N/A Rain Light Rain Showers
7:25 PM 42.8 °F 37.0 °F 41.0 °F 93% 29.33 in 3.7 mi SE 10.4 mph 21.9 mph N/A Rain Light Rain
7:29 PM 42.8 °F 37.0 °F 41.0 °F 93% 29.30 in 3.7 mi SE 10.4 mph - N/A Rain Light Rain
7:35 PM 42.8 °F 36.6 °F 41.0 °F 93% 29.30 in 6.2 mi SE 11.5 mph 24.2 mph N/A Rain Light Rain
7:45 PM 42.8 °F 36.6 °F 41.0 °F 93% 29.30 in 6.2 mi SE 11.5 mph 23.0 mph N/A Rain Light Rain
7:55 PM 42.8 °F 37.0 °F 41.0 °F 93% 29.30 in 6.2 mi SSE 10.4 mph - N/A Rain Light Rain
8:00 PM 43 °F - 41 °F 90% 29.30 in 12 mi SSE 8.9 mph - - Rain Light Rain
8:04 PM 42.8 °F 37.0 °F 41.0 °F 93% 29.30 in 6.2 mi SSE 10.4 mph - N/A Rain Light Rain
8:06 PM 42.8 °F 36.2 °F 41.0 °F 93% 29.30 in 6.2 mi SSE 12.7 mph - N/A Rain Light Rain
8:25 PM 42.8 °F 36.6 °F 41.0 °F 93% 29.27 in 6.2 mi SSE 11.5 mph - N/A   Overcast
8:55 PM 44.6 °F 38.8 °F 41.0 °F 87% 29.24 in 6.2 mi SSE 11.5 mph - N/A   Overcast
9:00 PM 44 °F - 41 °F 83% 29.26 in 22 mi SSE 13.4 mph - - Rain Drizzle
9:01 PM 44.6 °F 38.4 °F 41.0 °F 87% 29.24 in 6.2 mi SSE 12.7 mph - N/A Rain Drizzle
9:10 PM 44.6 °F 38.8 °F 41.0 °F 87% 29.24 in 6.2 mi SSE 11.5 mph - N/A Rain Light Rain
9:25 PM 44.6 °F 38.8 °F 41.0 °F 87% 29.24 in 6.2 mi SSE 11.5 mph - N/A   Mostly Cloudy
9:39 PM 44.6 °F 39.2 °F 41.0 °F 87% 29.24 in 6.2 mi SSE 10.4 mph - N/A Rain Light Drizzle
9:48 PM 44.6 °F 39.2 °F 41.0 °F 87% 29.24 in 6.2 mi SSE 10.4 mph - N/A   Light Drizzle
9:55 PM 44.6 °F 39.7 °F 41.0 °F 87% 29.24 in 6.2 mi SSE 9.2 mph - N/A   Mostly Cloudy
10:00 PM 45 °F - 40 °F 76% 29.24 in 28 mi SSE 8.9 mph - - Rain Rain
10:25 PM 46.4 °F 42.4 °F 41.0 °F 81% 29.21 in 6.2 mi SSE 8.1 mph - N/A   Overcast
10:55 PM 46.4 °F 42.4 °F 41.0 °F 81% 29.21 in 6.2 mi South 8.1 mph - N/A Rain Light Rain
11:00 PM 46 °F - 41 °F 75% 29.22 in 12 mi South 6.7 mph - - Rain Light Rain Showers
11:14 PM 46.4 °F 42.9 °F 41.0 °F 81% 29.21 in 6.2 mi SSE 6.9 mph - N/A Rain Light Drizzle
11:25 PM 46.4 °F 42.9 °F 41.0 °F 81% 29.18 in 6.2 mi SSE 6.9 mph - N/A   Overcast
11:41 PM 46.4 °F 42.9 °F 41.0 °F 81% 29.18 in 6.2 mi SSE 6.9 mph - N/A Rain Light Drizzle
11:55 PM 46.4 °F 42.9 °F 41.0 °F 81% 29.18 in 6.2 mi SSE 6.9 mph - N/A   Light Drizzle